Location: Little Chesterford
(52.0500°N, 0.1833°E)
Time: 22:48:15
(UTC+00:00)

NOSS 3-2 (A) - Visible Passes

Search period start: 18 April 2024 00:00
Search period end: 28 April 2024 00:00
Orbit: 704 x 1502 km, 63.4° (Epoch: 12 April)

Date Brightness Start Highest point End Pass type
(mag) Time Alt. Az. Time Alt. Az. Time Alt. Az.
18 Apr 4.3 21:07:17 10° NW 21:14:06 57° NE 21:19:58 20° ESE visible
18 Apr 4.2 22:58:05 10° NW 23:05:15 58° SW 23:07:20 46° S visible
19 Apr 5.7 00:50:38 10° WNW 00:54:42 16° WSW 00:54:42 16° WSW visible
19 Apr 4.6 20:21:36 10° NW 20:28:07 47° NNE 20:35:41 11° E visible
19 Apr 4.0 22:12:22 10° NW 22:19:35 77° SW 22:23:03 39° SSE visible
20 Apr 5.3 00:03:57 10° WNW 00:09:51 25° WSW 00:10:25 24° WSW visible
20 Apr 4.8 19:35:51 10° NW 19:42:02 39° NNE 19:49:27 10° E visible
20 Apr 4.0 21:26:42 10° NW 21:33:50 82° NE 21:38:48 28° SE visible
20 Apr 4.9 23:17:48 10° NW 23:24:28 35° WSW 23:26:10 32° SW visible
21 Apr 4.2 20:41:02 10° NW 20:47:59 65° NE 20:54:35 17° ESE visible
21 Apr 4.5 22:31:54 10° NW 22:38:58 49° WSW 22:41:57 35° S visible
22 Apr 5.9 00:25:24 10° W 00:28:37 13° WSW 00:29:19 13° WSW visible
22 Apr 4.5 19:55:22 10° NW 20:02:03 52° NNE 20:10:04 10° ESE visible
22 Apr 4.2 21:46:08 10° NW 21:53:20 67° SW 21:57:46 31° SSE visible
22 Apr 5.6 23:38:08 10° WNW 23:43:25 20° WSW 23:45:09 19° SW visible
23 Apr 4.0 21:00:26 10° NW 21:07:38 87° SW 21:13:38 22° SE visible
23 Apr 5.2 22:51:45 10° WNW 22:58:06 30° WSW 23:01:01 24° SW visible
24 Apr 4.1 20:14:46 10° NW 20:21:50 73° NE 20:29:32 13° SE visible
24 Apr 4.8 22:05:45 10° NW 22:12:38 42° WSW 22:16:55 25° S visible
25 Apr 4.4 21:19:55 10° NW 21:27:05 57° SW 21:32:52 21° SSE visible
25 Apr 5.9 23:12:29 10° WNW 23:16:57 16° WSW 23:20:15 13° SW visible
26 Apr 4.2 20:34:11 10° NW 20:41:25 77° SW 20:48:52 15° SE visible
26 Apr 5.5 22:25:47 10° WNW 22:31:41 25° WSW 22:36:15 16° SSW visible
27 Apr 4.1 19:48:31 10° NW 19:55:39 82° NE 20:04:15 10° SE visible
27 Apr 5.1 21:39:38 10° NW 21:46:17 35° WSW 21:52:18 16° S visible
